This is the latest recevied weather packets stored in our database for station/object KO4LCK. If no packets are shown the sender has not sent any weather packets the latest 10 day(s).
| Time | Temp. | Humidity | Pressure | Rain* | Wind** | Luminosity | Snow |
|---|---|---|---|---|---|---|---|
| 1777723269 | 11.67° C | 68% | 1014.4 hPa | 0 mm | - | 29 W/m² | - |
| 1777722968 | 11.67° C | 67% | 1014.1 hPa | 0 mm | - | 36 W/m² | - |
| 1777722668 | 11.67° C | 67% | 1014.2 hPa | 0 mm | - | 24 W/m² | - |
| 1777722364 | 11.67° C | 67% | 1013.9 hPa | 0 mm | - | 22 W/m² | - |
| 1777722061 | 11.67° C | 64% | 1013.7 hPa | 0 mm | - | 17 W/m² | - |
| 1777721759 | 11.67° C | 66% | 1013.8 hPa | 0 mm | - | 13 W/m² | - |
| 1777721458 | 11.67° C | 65% | 1014.1 hPa | 0 mm | - | 13 W/m² | - |
| 1777721155 | 11.67° C | 63% | 1014 hPa | 0 mm | - | 10 W/m² | - |
| 1777720852 | 11.67° C | 64% | 1014.2 hPa | 0 mm | - | 6 W/m² | - |
| 1777720550 | 11.67° C | 65% | 1014.1 hPa | 0 mm | - | 5 W/m² | - |
| 1777720247 | 11.67° C | 66% | 1014.1 hPa | 0 mm | - | 5 W/m² | - |
| 1777719944 | 11.67° C | 65% | 1014.1 hPa | 0 mm | - | 3 W/m² | - |
| 1777719642 | 12.22° C | 63% | 1013.9 hPa | 0 mm | - | 2 W/m² | - |
| 1777719339 | 12.22° C | 61% | 1014 hPa | 0 mm | - | 1 W/m² | - |
| 1777719037 | 12.22° C | 63% | 1014 hPa | 0 mm | - | 1 W/m² | - |
| 1777718733 | 12.22° C | 64% | 1013.9 hPa | 0 mm | - | 0 W/m² | - |
| 1777718431 | 12.22° C | 62% | 1014 hPa | 0 mm | - | 0 W/m² | - |
| 1777718129 | 12.22° C | 62% | 1013.7 hPa | 0 mm | - | 0 W/m² | - |
| 1777717827 | 12.78° C | 58% | 1013.5 hPa | 0 mm | - | 0 W/m² | - |
| 1777717522 | 12.78° C | 57% | 1013.6 hPa | 0 mm | - | 0 W/m² | - |
| 1777717220 | 12.78° C | 58% | 1013.6 hPa | 0 mm | - | 0 W/m² | - |
| 1777716918 | 12.78° C | 56% | 1013.6 hPa | 0 mm | - | 0 W/m² | - |
| 1777716616 | 12.78° C | 57% | 1013.9 hPa | 0 mm | - | 0 W/m² | - |
| 1777716314 | 12.78° C | 57% | 1013.6 hPa | 0 mm | - | 0 W/m² | - |
| 1777716011 | 12.78° C | 60% | 1013.8 hPa | 0 mm | - | 0 W/m² | - |
* Rain latest hour (hover to see other rain measurements)
** Current wind speed in m/s (hover to see current wind gust speed)